| time (UTC) | temp F | wind direction | speed knots | gust knots | rain 1hr in | rain 24hr in | rain mn in | humidity % | barometer mb |
| 20260901184421 | 101 | 17 | 2.6 | 5.2 | 0.00 | 0.00 | 0.00 | 29 | 1017.6 |
| 20260901183916 | 100 | 221 | 1.7 | 3.5 | 0.00 | 0.00 | 0.00 | 30 | 1017.9 |
| 20260901183416 | 100 | 265 | 1.7 | 6.1 | 0.00 | 0.00 | 0.00 | 30 | 1017.8 |
| 20260901182912 | 99 | 295 | 1.7 | 1.7 | 0.00 | 0.00 | 0.00 | 30 | 1017.7 |
| 20260901182407 | 98 | 256 | 1.7 | 8.7 | 0.00 | 0.00 | 0.00 | 33 | 1017.9 |
| 20260901181902 | 99 | 277 | 1.7 | 2.6 | 0.00 | 0.00 | 0.00 | 31 | 1018.0 |
| 20260901181356 | 99 | 210 | 3.5 | 5.2 | 0.00 | 0.00 | 0.00 | 30 | 1017.8 |
| 20260901180855 | 100 | 89 | 1.7 | 6.1 | 0.00 | 0.00 | 0.00 | 31 | 1018.1 |
| 20260901180354 | 100 | 219 | 4.3 | 7.0 | 0.00 | 0.00 | 0.00 | 32 | 1018.2 |
| 20260901175853 | 99 | 210 | 0.9 | 5.2 | 0.00 | 0.00 | 0.00 | 33 | 1018.0 |
| 20260901175348 | 98 | 268 | 0.0 | 6.1 | 0.00 | 0.00 | 0.00 | 34 | 1018.2 |
| 20260901174843 | 100 | 69 | 0.9 | 2.6 | 0.00 | 0.00 | 0.00 | 33 | 1018.2 |
| 20260901174333 | 101 | 318 | 0.9 | 1.7 | 0.00 | 0.00 | 0.00 | 32 | 1018.1 |
| 20260901173829 | 99 | 355 | 0.9 | 6.1 | 0.00 | 0.00 | 0.00 | 34 | 1018.3 |
| 20260901173324 | 99 | 271 | 0.0 | 5.2 | 0.00 | 0.00 | 0.00 | 35 | 1018.6 |
| 20260901172821 | 98 | 295 | 0.9 | 6.1 | 0.00 | 0.00 | 0.00 | 34 | 1018.4 |
| 20260901172319 | 98 | 76 | 2.6 | 5.2 | 0.00 | 0.00 | 0.00 | 34 | 1018.6 |
| 20260901171817 | 98 | 199 | 1.7 | 5.2 | 0.00 | 0.00 | 0.00 | 34 | 1018.6 |
| 20260901171317 | 98 | 315 | 1.7 | 6.1 | 0.00 | 0.00 | 0.00 | 34 | 1018.5 |
| 20260901170816 | 98 | 306 | 0.9 | 5.2 | 0.00 | 0.00 | 0.00 | 36 | 1018.7 |
| 20260901170316 | 98 | 247 | 0.9 | 3.5 | 0.00 | 0.00 | 0.00 | 36 | 1018.7 |
| 20260901165815 | 98 | 246 | 1.7 | 5.2 | 0.00 | 0.00 | 0.00 | 35 | 1018.8 |
| 20260901165310 | 97 | 316 | 3.5 | 7.0 | 0.00 | 0.00 | 0.00 | 36 | 1018.8 |
| 20260901164807 | 98 | 191 | 2.6 | 3.5 | 0.00 | 0.00 | 0.00 | 36 | 1018.8 |
| 20260901164301 | 97 | 269 | 1.7 | 3.5 | 0.00 | 0.00 | 0.00 | 38 | 1018.8 |
| 20260901163756 | 97 | 126 | 4.3 | 6.1 | 0.00 | 0.00 | 0.00 | 37 | 1018.9 |
| 20260901163256 | 96 | 188 | 1.7 | 3.5 | 0.00 | 0.00 | 0.00 | 38 | 1018.8 |
| 20260901162751 | 96 | 230 | 5.2 | 7.0 | 0.00 | 0.00 | 0.00 | 38 | 1018.7 |
| 20260901162251 | 96 | 278 | 0.9 | 6.1 | 0.00 | 0.00 | 0.00 | 38 | 1019.0 |
| 20260901161749 | 96 | 67 | 0.9 | 3.5 | 0.00 | 0.00 | 0.00 | 38 | 1019.2 |
| 20260901161244 | 95 | 252 | 0.9 | 7.0 | 0.00 | 0.00 | 0.00 | 38 | 1018.9 |
| 20260901160740 | 95 | 268 | 1.7 | 8.7 | 0.00 | 0.00 | 0.00 | 39 | 1019.0 |
| 20260901160236 | 95 | 259 | 1.7 | 6.1 | 0.00 | 0.00 | 0.00 | 39 | 1018.9 |
| 20260901155735 | 95 | 94 | 0.9 | 2.6 | 0.00 | 0.00 | 0.00 | 40 | 1019.2 |
| 20260901155230 | 95 | 243 | 2.6 | 3.5 | 0.00 | 0.00 | 0.00 | 39 | 1019.0 |
| 20260901154725 | 95 | 295 | 2.6 | 5.2 | 0.00 | 0.00 | 0.00 | 40 | 1018.9 |
| 20260901154221 | 94 | 189 | 1.7 | 1.7 | 0.00 | 0.00 | 0.00 | 40 | 1018.9 |
| 20260901153716 | 93 | 231 | 1.7 | 3.5 | 0.00 | 0.00 | 0.00 | 42 | 1019.0 |
| 20260901153215 | 92 | 105 | 0.9 | 5.2 | 0.00 | 0.00 | 0.00 | 42 | 1018.9 |
| 20260901152709 | 93 | 261 | 2.6 | 3.5 | 0.00 | 0.00 | 0.00 | 42 | 1019.0 |
| 20260901152208 | 92 | 308 | 0.9 | 5.2 | 0.00 | 0.00 | 0.00 | 42 | 1019.0 |
| 20260901151704 | 92 | 230 | 0.9 | 2.6 | 0.00 | 0.00 | 0.00 | 43 | 1018.7 |
| 20260901151203 | 92 | 285 | 1.7 | 3.5 | 0.00 | 0.00 | 0.00 | 43 | 1019.0 |
| 20260901150658 | 92 | 223 | 1.7 | 3.5 | 0.00 | 0.00 | 0.00 | 43 | 1019.2 |
| 20260901150156 | 91 | 215 | 0.0 | 2.6 | 0.00 | 0.00 | 0.00 | 44 | 1019.0 |
| 20260901145653 | 90 | 93 | 0.9 | 3.5 | 0.00 | 0.00 | 0.00 | 45 | 1019.0 |
| 20260901145148 | 91 | 56 | 0.9 | 1.7 | 0.00 | 0.00 | 0.00 | 45 | 1019.0 |
| 20260901144644 | 89 | 208 | 1.7 | 5.2 | 0.00 | 0.00 | 0.00 | 46 | 1019.3 |
| 20260901144138 | 90 | 133 | 0.9 | 2.6 | 0.00 | 0.00 | 0.00 | 46 | 1019.2 |
| 20260901143634 | 89 | 200 | 0.9 | 5.2 | 0.00 | 0.00 | 0.00 | 47 | 1019.2 |
| 20260901143130 | 89 | 270 | 0.9 | 6.1 | 0.00 | 0.00 | 0.00 | 48 | 1019.2 |
| 20260901142626 | 89 | 155 | 1.7 | 7.8 | 0.00 | 0.00 | 0.00 | 48 | 1019.2 |
| 20260901142125 | 88 | 256 | 1.7 | 2.6 | 0.00 | 0.00 | 0.00 | 49 | 1019.4 |
| 20260901141620 | 88 | 196 | 0.9 | 5.2 | 0.00 | 0.00 | 0.00 | 49 | 1019.2 |
| 20260901141120 | 87 | 225 | 1.7 | 2.6 | 0.00 | 0.00 | 0.00 | 50 | 1019.3 |
| 20260901140619 | 87 | 138 | 1.7 | 2.6 | 0.00 | 0.00 | 0.00 | 50 | 1019.2 |
| 20260901140118 | 86 | 69 | 0.9 | 1.7 | 0.00 | 0.00 | 0.00 | 51 | 1019.5 |
| 20260901135618 | 86 | 4 | 0.0 | 5.2 | 0.00 | 0.00 | 0.00 | 51 | 1019.3 |
| 20260901135113 | 85 | 38 | 1.7 | 3.5 | 0.00 | 0.00 | 0.00 | 52 | 1019.3 |
| 20260901134609 | 85 | 165 | 0.9 | 2.6 | 0.00 | 0.00 | 0.00 | 52 | 1019.2 |
| 20260901134104 | 84 | 276 | 0.9 | 5.2 | 0.00 | 0.00 | 0.00 | 53 | 1019.0 |
| 20260901133602 | 84 | 264 | 0.9 | 2.6 | 0.00 | 0.00 | 0.00 | 54 | 1019.0 |
| 20260901133101 | 84 | 237 | 0.9 | 2.6 | 0.00 | 0.00 | 0.00 | 54 | 1019.2 |
| 20260901132556 | 83 | 149 | 0.9 | 1.7 | 0.00 | 0.00 | 0.00 | 54 | 1018.9 |
| 20260901132050 | 83 | 295 | 0.0 | 1.7 | 0.00 | 0.00 | 0.00 | 55 | 1018.7 |
| 20260901131551 | 82 | 358 | 0.0 | 0.9 | 0.00 | 0.00 | 0.00 | 56 | 1018.8 |
| 20260901131046 | 82 | 355 | 0.9 | 0.9 | 0.00 | 0.00 | 0.00 | 57 | 1018.9 |
| 20260901130545 | 81 | 168 | 1.7 | 1.7 | 0.00 | 0.00 | 0.00 | 57 | 1018.8 |
| 20260901130044 | 81 | 309 | 0.9 | 2.6 | 0.00 | 0.00 | 0.00 | 57 | 1018.7 |
| 20260901125543 | 81 | 254 | 0.0 | 2.6 | 0.00 | 0.00 | 0.00 | 58 | 1018.6 |
| 20260901125038 | 81 | 68 | 1.7 | 2.6 | 0.00 | 0.00 | 0.00 | 58 | 1018.8 |
| 20260901124533 | 81 | 42 | 0.9 | 2.6 | 0.00 | 0.00 | 0.00 | 58 | 1018.7 |
| 20260901124032 | 81 | 42 | 0.9 | 2.6 | 0.00 | 0.00 | 0.00 | 58 | 1018.7 |
| 20260901123527 | 81 | 248 | 0.9 | 3.5 | 0.00 | 0.00 | 0.00 | 58 | 1018.5 |
| 20260901123028 | 81 | 245 | 0.9 | 1.7 | 0.00 | 0.00 | 0.00 | 58 | 1018.5 |
| 20260901122526 | 81 | 29 | 2.6 | 5.2 | 0.00 | 0.00 | 0.00 | 57 | 1018.4 |
| 20260901122026 | 81 | 281 | 0.9 | 1.7 | 0.00 | 0.00 | 0.00 | 58 | 1018.3 |
| 20260901121520 | 81 | 110 | 0.0 | 0.9 | 0.00 | 0.00 | 0.00 | 58 | 1018.3 |
| 20260901121016 | 81 | 331 | 0.9 | 5.2 | 0.00 | 0.00 | 0.00 | 57 | 1018.3 |
| 20260901120515 | 81 | 136 | 0.9 | 2.6 | 0.00 | 0.00 | 0.00 | 57 | 1018.4 |
| 20260901120012 | 81 | 159 | 2.6 | 3.5 | 0.00 | 0.00 | 0.00 | 57 | 1018.1 |
| 20260901115506 | 81 | 187 | 2.6 | 3.5 | 0.00 | 0.00 | 0.00 | 57 | 1018.1 |
| 20260901115004 | 81 | 321 | 3.5 | 3.5 | 0.00 | 0.00 | 0.00 | 56 | 1018.3 |
| 20260901114459 | 81 | 268 | 3.5 | 5.2 | 0.00 | 0.00 | 0.00 | 57 | 1018.1 |
| 20260901113956 | 82 | 283 | 1.7 | 2.6 | 0.00 | 0.00 | 0.00 | 56 | 1017.9 |
| 20260901113456 | 81 | 12 | 0.9 | 3.5 | 0.00 | 0.00 | 0.00 | 56 | 1018.0 |
| 20260901112952 | 82 | 240 | 0.0 | 1.7 | 0.00 | 0.00 | 0.00 | 56 | 1018.1 |
| 20260901112447 | 82 | 20 | 0.9 | 5.2 | 0.00 | 0.00 | 0.00 | 56 | 1018.0 |
| 20260901111942 | 82 | 265 | 0.0 | 3.5 | 0.00 | 0.00 | 0.00 | 56 | 1017.9 |
| 20260901111440 | 82 | 254 | 1.7 | 2.6 | 0.00 | 0.00 | 0.00 | 55 | 1018.1 |
| 20260901110938 | 82 | 162 | 0.9 | 3.5 | 0.00 | 0.00 | 0.00 | 55 | 1018.1 |
| 20260901110434 | 81 | 156 | 1.7 | 3.5 | 0.00 | 0.00 | 0.00 | 55 | 1017.8 |
| 20260901105930 | 81 | 317 | 1.7 | 5.2 | 0.00 | 0.00 | 0.00 | 55 | 1017.9 |
| 20260901105426 | 81 | 266 | 1.7 | 1.7 | 0.00 | 0.00 | 0.00 | 55 | 1017.8 |
| 20260901104921 | 81 | 291 | 0.9 | 1.7 | 0.00 | 0.00 | 0.00 | 55 | 1017.9 |
| 20260901104416 | 81 | 261 | 1.7 | 3.5 | 0.00 | 0.00 | 0.00 | 55 | 1018.0 |
| 20260901103912 | 80 | 220 | 0.0 | 1.7 | 0.00 | 0.00 | 0.00 | 55 | 1018.1 |
| 20260901103412 | 80 | 283 | 0.9 | 2.6 | 0.00 | 0.00 | 0.00 | 55 | 1017.8 |
| 20260901102907 | 81 | 351 | 0.0 | 1.7 | 0.00 | 0.00 | 0.00 | 55 | 1017.9 |
| 20260901102401 | 81 | 106 | 0.0 | 1.7 | 0.00 | 0.00 | 0.00 | 55 | 1017.9 |
| 20260901101856 | 81 | 256 | 0.9 | 1.7 | 0.00 | 0.00 | 0.00 | 55 | 1017.9 |
| 20260901101351 | 81 | 227 | 0.0 | 1.7 | 0.00 | 0.00 | 0.00 | 54 | 1017.6 |
| 20260901100850 | 81 | 236 | 0.9 | 1.7 | 0.00 | 0.00 | 0.00 | 54 | 1017.9 |
| 20260901100345 | 81 | 167 | 0.9 | 1.7 | 0.00 | 0.00 | 0.00 | 53 | 1017.7 |
| 20260901095839 | 81 | 291 | 0.9 | 2.6 | 0.00 | 0.00 | 0.00 | 53 | 1017.8 |
| 20260901095336 | 81 | 269 | 0.9 | 1.7 | 0.00 | 0.00 | 0.00 | 52 | 1017.8 |
| 20260901094830 | 81 | 247 | 0.9 | 2.6 | 0.00 | 0.00 | 0.00 | 52 | 1017.8 |
| 20260901094325 | 82 | 134 | 0.9 | 1.7 | 0.00 | 0.00 | 0.00 | 52 | 1017.8 |
| 20260901093820 | 81 | 284 | 0.0 | 2.6 | 0.00 | 0.00 | 0.00 | 52 | 1017.7 |
| 20260901093319 | 81 | 285 | 1.7 | 1.7 | 0.00 | 0.00 | 0.00 | 52 | 1017.6 |
| 20260901092815 | 80 | 289 | 0.0 | 2.6 | 0.00 | 0.00 | 0.00 | 53 | 1017.6 |
| 20260901092306 | 80 | 74 | 0.9 | 1.7 | 0.00 | 0.00 | 0.00 | 53 | 1017.6 |
| 20260901091800 | 80 | 104 | 0.9 | 0.9 | 0.00 | 0.00 | 0.00 | 54 | 1017.5 |
| 20260901091255 | 79 | 102 | 1.7 | 1.7 | 0.00 | 0.00 | 0.00 | 54 | 1017.8 |
| 20260901090750 | 79 | 102 | 0.0 | 0.9 | 0.00 | 0.00 | 0.00 | 55 | 1017.7 |
| 20260901090245 | 79 | 96 | 0.0 | 0.9 | 0.00 | 0.00 | 0.00 | 55 | 1017.5 |
| 20260901085741 | 79 | 228 | 0.0 | 0.9 | 0.00 | 0.00 | 0.00 | 55 | 1017.7 |
| 20260901085236 | 79 | 228 | 0.0 | 0.9 | 0.00 | 0.00 | 0.00 | 55 | 1017.6 |
| 20260901084732 | 79 | 228 | 0.0 | 0.9 | 0.00 | 0.00 | 0.00 | 55 | 1017.4 |
| 20260901084228 | 78 | 229 | 0.0 | 0.0 | 0.00 | 0.00 | 0.00 | 55 | 1017.5 |
| 20260901083723 | 79 | 229 | 0.0 | 0.9 | 0.00 | 0.00 | 0.00 | 55 | 1017.4 |
| 20260901083222 | 78 | 229 | 0.0 | 0.9 | 0.00 | 0.00 | 0.00 | 55 | 1017.4 |
| 20260901082721 | 78 | 229 | 0.0 | 0.9 | 0.00 | 0.00 | 0.00 | 55 | 1017.3 |
| 20260901082217 | 78 | 229 | 0.0 | 0.9 | 0.00 | 0.00 | 0.00 | 56 | 1017.4 |
| 20260901081712 | 78 | 229 | 0.0 | 0.0 | 0.00 | 0.00 | 0.00 | 56 | 1017.3 |
| 20260901081212 | 78 | 229 | 0.0 | 0.0 | 0.00 | 0.00 | 0.00 | 56 | 1017.4 |
| 20260901080707 | 78 | 229 | 0.0 | 0.0 | 0.00 | 0.00 | 0.00 | 57 | 1017.4 |
| 20260901080206 | 78 | 229 | 0.0 | 0.0 | 0.00 | 0.00 | 0.00 | 57 | 1017.3 |
| 20260901075701 | 78 | 229 | 0.0 | 0.0 | 0.00 | 0.00 | 0.00 | 57 | 1017.4 |
| 20260901075200 | 78 | 229 | 0.0 | 0.0 | 0.00 | 0.00 | 0.00 | 57 | 1017.4 |
| 20260901074659 | 78 | 229 | 0.0 | 0.0 | 0.00 | 0.00 | 0.00 | 56 | 1017.5 |
| 20260901074154 | 78 | 229 | 0.0 | 0.0 | 0.00 | 0.00 | 0.00 | 57 | 1017.6 |
| 20260901073651 | 78 | 229 | 0.0 | 0.0 | 0.00 | 0.00 | 0.00 | 56 | 1017.2 |
| 20260901073146 | 78 | 229 | 0.0 | 0.0 | 0.00 | 0.00 | 0.00 | 56 | 1017.3 |
| 20260901072641 | 79 | 229 | 0.0 | 0.0 | 0.00 | 0.00 | 0.00 | 55 | 1017.3 |
| 20260901072136 | 79 | 229 | 0.0 | 0.0 | 0.00 | 0.00 | 0.00 | 55 | 1017.4 |
| 20260901071631 | 79 | 229 | 0.0 | 0.0 | 0.00 | 0.00 | 0.00 | 55 | 1017.3 |
| 20260901071130 | 79 | 229 | 0.0 | 0.0 | 0.00 | 0.00 | 0.00 | 55 | 1017.4 |
| 20260901070624 | 80 | 229 | 0.0 | 0.0 | 0.00 | 0.00 | 0.00 | 54 | 1017.3 |
| 20260901070120 | 80 | 229 | 0.0 | 0.0 | 0.00 | 0.00 | 0.00 | 53 | 1017.4 |
| 20260901065609 | 81 | 229 | 0.0 | 0.0 | 0.00 | 0.00 | 0.00 | 52 | 1017.4 |
| 20260901065108 | 81 | 229 | 0.0 | 0.0 | 0.00 | 0.00 | 0.00 | 51 | 1017.4 |
| 20260901064606 | 81 | 229 | 0.0 | 0.0 | 0.00 | 0.00 | 0.00 | 51 | 1017.4 |
| 20260901064102 | 81 | 229 | 0.0 | 0.0 | 0.00 | 0.00 | 0.00 | 51 | 1017.4 |
| 20260901063553 | 81 | 229 | 0.0 | 0.9 | 0.00 | 0.00 | 0.00 | 50 | 1017.4 |
| 20260901063048 | 81 | 229 | 0.0 | 0.0 | 0.00 | 0.00 | 0.00 | 51 | 1017.4 |
| 20260901062544 | 81 | 229 | 0.0 | 0.0 | 0.00 | 0.00 | 0.00 | 50 | 1017.3 |
| 20260901062040 | 82 | 229 | 0.0 | 0.0 | 0.00 | 0.00 | 0.00 | 50 | 1017.4 |
| 20260901061536 | 82 | 229 | 0.0 | 0.0 | 0.00 | 0.00 | 0.00 | 50 | 1017.3 |
| 20260901061031 | 82 | 229 | 0.0 | 0.0 | 0.00 | 0.00 | 0.00 | 49 | 1017.4 |
| 20260901060530 | 82 | 229 | 0.0 | 0.0 | 0.00 | 0.00 | 0.00 | 50 | 1017.3 |
| 20260901060025 | 82 | 229 | 0.0 | 0.9 | 0.00 | 0.00 | 0.00 | 49 | 1017.5 |
| 20260901055516 | 82 | 229 | 0.0 | 0.0 | 0.00 | 0.00 | 0.00 | 49 | 1017.3 |
| 20260901055013 | 83 | 229 | 0.0 | 0.0 | 0.00 | 0.00 | 0.00 | 49 | 1017.5 |
| 20260901054509 | 83 | 229 | 0.0 | 0.0 | 0.00 | 0.00 | 0.00 | 49 | 1017.6 |
| 20260901054004 | 83 | 229 | 0.0 | 0.0 | 0.00 | 0.00 | 0.00 | 48 | 1017.4 |
| 20260901053454 | 84 | 229 | 0.0 | 0.0 | 0.00 | 0.00 | 0.00 | 47 | 1017.3 |
| 20260901052949 | 84 | 229 | 0.0 | 0.9 | 0.00 | 0.00 | 0.00 | 46 | 1017.4 |
| 20260901052446 | 84 | 169 | 0.0 | 0.9 | 0.00 | 0.00 | 0.00 | 47 | 1017.4 |
| 20260901051944 | 84 | 165 | 0.0 | 0.9 | 0.00 | 0.00 | 0.00 | 47 | 1017.3 |
| 20260901051439 | 84 | 165 | 0.0 | 0.9 | 0.00 | 0.00 | 0.00 | 46 | 1017.2 |
| 20260901050933 | 84 | 97 | 0.0 | 0.9 | 0.00 | 0.00 | 0.00 | 46 | 1017.3 |
| 20260901050429 | 85 | 70 | 0.0 | 0.0 | 0.00 | 0.00 | 0.00 | 46 | 1017.3 |
| 20260901045928 | 85 | 138 | 0.0 | 0.0 | 0.00 | 0.00 | 0.00 | 46 | 1017.2 |
| 20260901045423 | 85 | 173 | 0.0 | 0.0 | 0.00 | 0.00 | 0.00 | 47 | 1017.2 |
| 20260901044918 | 85 | 173 | 0.0 | 0.0 | 0.00 | 0.00 | 0.00 | 45 | 1017.3 |
| 20260901044415 | 85 | 117 | 0.0 | 0.0 | 0.00 | 0.00 | 0.00 | 45 | 1017.2 |
| 20260901043911 | 86 | 83 | 0.0 | 0.9 | 0.00 | 0.00 | 0.00 | 44 | 1017.2 |
| 20260901043407 | 86 | 268 | 0.9 | 0.9 | 0.00 | 0.00 | 0.00 | 44 | 1017.2 |
| 20260901042906 | 86 | 269 | 0.0 | 0.0 | 0.00 | 0.00 | 0.00 | 45 | 1017.2 |
| 20260901042401 | 87 | 269 | 0.9 | 0.9 | 0.00 | 0.00 | 0.00 | 43 | 1017.1 |
| 20260901041856 | 87 | 169 | 0.0 | 2.6 | 0.00 | 0.00 | 0.00 | 42 | 1017.0 |
| 20260901041351 | 87 | 14 | 0.0 | 0.9 | 0.00 | 0.00 | 0.00 | 42 | 1016.9 |
| 20260901040845 | 88 | 61 | 0.9 | 1.7 | 0.00 | 0.00 | 0.00 | 42 | 1017.1 |
| 20260901040344 | 88 | 211 | 0.0 | 0.9 | 0.00 | 0.00 | 0.00 | 42 | 1017.0 |
| 20260901035839 | 88 | 104 | 0.9 | 1.7 | 0.00 | 0.00 | 0.00 | 41 | 1017.0 |
| 20260901035337 | 88 | 64 | 0.0 | 1.7 | 0.00 | 0.00 | 0.00 | 41 | 1017.0 |
| 20260901034836 | 88 | 236 | 0.0 | 1.7 | 0.00 | 0.00 | 0.00 | 41 | 1017.2 |
| 20260901034332 | 88 | 177 | 1.7 | 1.7 | 0.00 | 0.00 | 0.00 | 41 | 1017.0 |
| 20260901033831 | 88 | 242 | 0.9 | 1.7 | 0.00 | 0.00 | 0.00 | 41 | 1016.9 |
| 20260901033330 | 89 | 230 | 0.9 | 1.7 | 0.00 | 0.00 | 0.00 | 40 | 1016.8 |
| 20260901032829 | 88 | 290 | 0.9 | 5.2 | 0.00 | 0.00 | 0.00 | 40 | 1017.0 |
| 20260901032329 | 88 | 215 | 0.0 | 2.6 | 0.00 | 0.00 | 0.00 | 41 | 1016.9 |
| 20260901031824 | 88 | 224 | 0.0 | 1.7 | 0.00 | 0.00 | 0.00 | 41 | 1016.9 |
| 20260901031320 | 89 | 283 | 0.9 | 2.6 | 0.00 | 0.00 | 0.00 | 40 | 1016.9 |
| 20260901030819 | 89 | 234 | 0.0 | 2.6 | 0.00 | 0.00 | 0.00 | 41 | 1016.8 |
| 20260901030314 | 89 | 326 | 0.9 | 1.7 | 0.00 | 0.00 | 0.00 | 40 | 1016.7 |
| 20260901025813 | 89 | 285 | 0.9 | 1.7 | 0.00 | 0.00 | 0.00 | 40 | 1016.5 |
| 20260901025308 | 89 | 30 | 0.0 | 1.7 | 0.00 | 0.00 | 0.00 | 40 | 1016.5 |
| 20260901024758 | 89 | 187 | 0.0 | 1.7 | 0.00 | 0.00 | 0.00 | 40 | 1016.6 |
| 20260901024257 | 89 | 225 | 0.9 | 1.7 | 0.00 | 0.00 | 0.00 | 39 | 1016.5 |
| 20260901023755 | 89 | 286 | 0.0 | 1.7 | 0.00 | 0.00 | 0.00 | 39 | 1016.4 |
| 20260901023250 | 90 | 274 | 1.7 | 2.6 | 0.00 | 0.00 | 0.00 | 39 | 1016.5 |
| 20260901022746 | 90 | 145 | 0.0 | 0.9 | 0.00 | 0.00 | 0.00 | 39 | 1016.2 |
| 20260901022242 | 90 | 183 | 0.0 | 0.9 | 0.00 | 0.00 | 0.00 | 39 | 1016.1 |
| 20260901021736 | 90 | 84 | 0.0 | 0.9 | 0.00 | 0.00 | 0.00 | 38 | 1015.7 |
| 20260901021232 | 91 | 131 | 0.0 | 1.7 | 0.00 | 0.00 | 0.00 | 38 | 1015.8 |
| 20260901020727 | 91 | 136 | 0.0 | 1.7 | 0.00 | 0.00 | 0.00 | 37 | 1015.8 |
| 20260901020222 | 91 | 80 | 0.0 | 0.9 | 0.00 | 0.00 | 0.00 | 37 | 1015.7 |
| 20260901015717 | 92 | 43 | 0.0 | 1.7 | 0.00 | 0.00 | 0.00 | 37 | 1015.8 |
| 20260901015212 | 92 | 54 | 0.0 | 1.7 | 0.00 | 0.00 | 0.00 | 36 | 1015.6 |
| 20260901014706 | 92 | 19 | 0.0 | 0.9 | 0.00 | 0.00 | 0.00 | 36 | 1015.5 |
| 20260901014203 | 92 | 306 | 0.0 | 2.6 | 0.00 | 0.00 | 0.00 | 35 | 1015.6 |
| 20260901013653 | 93 | 112 | 0.0 | 2.6 | 0.00 | 0.00 | 0.00 | 35 | 1015.6 |
| 20260901013148 | 93 | 318 | 1.7 | 2.6 | 0.00 | 0.00 | 0.00 | 35 | 1015.5 |
| 20260901012643 | 93 | 125 | 0.0 | 2.6 | 0.00 | 0.00 | 0.00 | 34 | 1015.5 |
| 20260901012138 | 94 | 14 | 0.0 | 2.6 | 0.00 | 0.00 | 0.00 | 34 | 1015.3 |
| 20260901011634 | 94 | 89 | 3.5 | 3.5 | 0.00 | 0.00 | 0.00 | 34 | 1015.3 |
| 20260901011133 | 94 | 210 | 1.7 | 5.2 | 0.00 | 0.00 | 0.00 | 34 | 1015.2 |
| 20260901010628 | 94 | 33 | 0.9 | 1.7 | 0.00 | 0.00 | 0.00 | 34 | 1015.3 |
| 20260901010127 | 95 | 40 | 0.9 | 2.6 | 0.00 | 0.00 | 0.00 | 33 | 1015.1 |
| 20260901005626 | 95 | 49 | 0.9 | 3.5 | 0.00 | 0.00 | 0.00 | 34 | 1015.1 |
| 20260901005121 | 95 | 205 | 0.9 | 5.2 | 0.00 | 0.00 | 0.00 | 33 | 1015.1 |
| 20260901004620 | 95 | 36 | 0.0 | 1.7 | 0.00 | 0.00 | 0.00 | 33 | 1015.1 |
| 20260901004116 | 96 | 216 | 0.9 | 0.9 | 0.00 | 0.00 | 0.00 | 33 | 1015.1 |
| 20260901003611 | 96 | 71 | 0.9 | 1.7 | 0.00 | 0.00 | 0.00 | 33 | 1015.2 |
| 20260901003110 | 96 | 45 | 1.7 | 5.2 | 0.00 | 0.00 | 0.00 | 33 | 1015.2 |
| 20260901002609 | 96 | 229 | 2.6 | 3.5 | 0.00 | 0.00 | 0.00 | 33 | 1014.9 |
| 20260901002104 | 96 | 356 | 2.6 | 3.5 | 0.00 | 0.00 | 0.00 | 33 | 1015.0 |
| 20260901001559 | 97 | 287 | 0.0 | 6.1 | 0.00 | 0.00 | 0.00 | 33 | 1014.9 |
| 20260901001054 | 97 | 23 | 2.6 | 3.5 | 0.00 | 0.00 | 0.00 | 32 | 1015.0 |
| 20260901000549 | 97 | 20 | 0.0 | 1.7 | 0.00 | 0.00 | 0.00 | 32 | 1015.2 |
| 20260901000045 | 98 | 183 | 1.7 | 2.6 | 0.00 | 0.00 | 0.00 | 32 | 1015.2 |
| 20260831235538 | 98 | 296 | 3.5 | 5.2 | 0.00 | 0.00 | 0.00 | 32 | 1014.9 |
| 20260831235034 | 98 | 296 | 1.7 | 3.5 | 0.00 | 0.00 | 0.00 | 32 | 1015.1 |
| 20260831234528 | 98 | 33 | 0.9 | 6.1 | 0.00 | 0.00 | 0.00 | 31 | 1015.1 |
| 20260831234024 | 98 | 67 | 0.9 | 1.7 | 0.00 | 0.00 | 0.00 | 32 | 1015.2 |
| 20260831233519 | 98 | 13 | 0.9 | 2.6 | 0.00 | 0.00 | 0.00 | 32 | 1015.3 |
| 20260831233015 | 98 | 292 | 0.9 | 1.7 | 0.00 | 0.00 | 0.00 | 32 | 1015.2 |
| 20260831232510 | 99 | 70 | 0.9 | 2.6 | 0.00 | 0.00 | 0.00 | 32 | 1015.1 |
| 20260831232006 | 99 | 5 | 0.9 | 6.1 | 0.00 | 0.00 | 0.00 | 32 | 1015.2 |
| 20260831231502 | 99 | 260 | 0.9 | 6.1 | 0.00 | 0.00 | 0.00 | 32 | 1015.0 |
| 20260831230957 | 99 | 359 | 0.0 | 5.2 | 0.00 | 0.00 | 0.00 | 32 | 1015.2 |
| 20260831230452 | 99 | 183 | 1.7 | 6.1 | 0.00 | 0.00 | 0.00 | 32 | 1015.3 |
| 20260831225947 | 99 | 278 | 3.5 | 7.0 | 0.00 | 0.00 | 0.00 | 31 | 1015.0 |
| 20260831225443 | 99 | 39 | 0.9 | 3.5 | 0.00 | 0.00 | 0.00 | 32 | 1015.0 |
| 20260831224938 | 100 | 35 | 3.5 | 5.2 | 0.00 | 0.00 | 0.00 | 31 | 1015.2 |
| 20260831224437 | 100 | 251 | 4.3 | 7.0 | 0.00 | 0.00 | 0.00 | 31 | 1015.1 |
| 20260831223932 | 100 | 56 | 2.6 | 5.2 | 0.00 | 0.00 | 0.00 | 31 | 1015.0 |
| 20260831223427 | 101 | 262 | 0.9 | 6.1 | 0.00 | 0.00 | 0.00 | 31 | 1014.9 |
| 20260831222924 | 102 | 237 | 2.6 | 6.1 | 0.00 | 0.00 | 0.00 | 30 | 1015.2 |
| 20260831222419 | 102 | 28 | 0.9 | 3.5 | 0.00 | 0.00 | 0.00 | 30 | 1015.0 |
| 20260831221914 | 101 | 215 | 1.7 | 2.6 | 0.00 | 0.00 | 0.00 | 30 | 1015.0 |
| 20260831221410 | 102 | 153 | 0.0 | 2.6 | 0.00 | 0.00 | 0.00 | 30 | 1014.9 |
| 20260831220905 | 101 | 129 | 2.6 | 5.2 | 0.00 | 0.00 | 0.00 | 31 | 1015.1 |
| 20260831220355 | 102 | 215 | 0.9 | 3.5 | 0.00 | 0.00 | 0.00 | 30 | 1014.9 |
| 20260831215850 | 103 | 217 | 1.7 | 7.8 | 0.00 | 0.00 | 0.00 | 31 | 1015.1 |
| 20260831215345 | 103 | 290 | 1.7 | 6.1 | 0.00 | 0.00 | 0.00 | 29 | 1015.0 |
| 20260831214842 | 103 | 271 | 3.5 | 6.1 | 0.00 | 0.00 | 0.00 | 29 | 1015.0 |
| 20260831214339 | 104 | 265 | 2.6 | 2.6 | 0.00 | 0.00 | 0.00 | 28 | 1015.0 |
| 20260831213833 | 103 | 276 | 1.7 | 2.6 | 0.00 | 0.00 | 0.00 | 30 | 1015.3 |
| 20260831213330 | 105 | 252 | 4.3 | 7.8 | 0.00 | 0.00 | 0.00 | 29 | 1015.4 |
| 20260831212825 | 104 | 244 | 1.7 | 5.2 | 0.00 | 0.00 | 0.00 | 29 | 1015.4 |
| 20260831212322 | 104 | 261 | 0.9 | 3.5 | 0.00 | 0.00 | 0.00 | 29 | 1015.5 |
| 20260831211820 | 103 | 285 | 0.9 | 2.6 | 0.00 | 0.00 | 0.00 | 30 | 1015.6 |
| 20260831211315 | 102 | 263 | 0.9 | 5.2 | 0.00 | 0.00 | 0.00 | 30 | 1015.4 |
| 20260831210810 | 103 | 166 | 4.3 | 7.8 | 0.00 | 0.00 | 0.00 | 30 | 1015.5 |
| 20260831210307 | 103 | 269 | 3.5 | 6.1 | 0.00 | 0.00 | 0.00 | 31 | 1015.7 |
| 20260831205806 | 102 | 295 | 3.5 | 6.1 | 0.00 | 0.00 | 0.00 | 30 | 1015.6 |
| 20260831205305 | 101 | 160 | 1.7 | 2.6 | 0.00 | 0.00 | 0.00 | 30 | 1015.9 |
| 20260831204755 | 100 | 222 | 0.0 | 2.6 | 0.00 | 0.00 | 0.00 | 32 | 1015.7 |
| 20260831204254 | 101 | 298 | 1.7 | 2.6 | 0.00 | 0.00 | 0.00 | 31 | 1015.9 |
| 20260831203754 | 102 | 322 | 2.6 | 5.2 | 0.00 | 0.00 | 0.00 | 30 | 1015.6 |
| 20260831203248 | 104 | 249 | 1.7 | 2.6 | 0.00 | 0.00 | 0.00 | 29 | 1015.8 |
| 20260831202747 | 103 | 86 | 2.6 | 9.6 | 0.00 | 0.00 | 0.00 | 30 | 1015.8 |
| 20260831202242 | 104 | 212 | 1.7 | 5.2 | 0.00 | 0.00 | 0.00 | 29 | 1015.8 |
| 20260831201737 | 103 | 30 | 1.7 | 3.5 | 0.00 | 0.00 | 0.00 | 30 | 1016.1 |
| 20260831201236 | 103 | 50 | 0.9 | 2.6 | 0.00 | 0.00 | 0.00 | 30 | 1016.2 |
| 20260831200732 | 103 | 41 | 2.6 | 6.1 | 0.00 | 0.00 | 0.00 | 30 | 1016.2 |
| 20260831200232 | 103 | 338 | 1.7 | 2.6 | 0.00 | 0.00 | 0.00 | 30 | 1016.3 |
| 20260831195727 | 103 | 253 | 3.5 | 5.2 | 0.00 | 0.00 | 0.00 | 30 | 1016.1 |
| 20260831195223 | 103 | 41 | 1.7 | 5.2 | 0.00 | 0.00 | 0.00 | 30 | 1016.5 |
| 20260831194718 | 104 | 110 | 1.7 | 7.8 | 0.00 | 0.00 | 0.00 | 28 | 1016.6 |
| 20260831194214 | 103 | 331 | 0.9 | 2.6 | 0.00 | 0.00 | 0.00 | 29 | 1016.5 |
| 20260831193707 | 102 | 275 | 0.9 | 6.1 | 0.00 | 0.00 | 0.00 | 30 | 1016.4 |
| 20260831193202 | 103 | 239 | 4.3 | 7.0 | 0.00 | 0.00 | 0.00 | 29 | 1016.4 |
| 20260831192657 | 102 | 249 | 0.9 | 2.6 | 0.00 | 0.00 | 0.00 | 30 | 1016.5 |
| 20260831192153 | 103 | 183 | 4.3 | 5.2 | 0.00 | 0.00 | 0.00 | 31 | 1016.6 |
| 20260831191648 | 102 | 291 | 2.6 | 3.5 | 0.00 | 0.00 | 0.00 | 31 | 1016.6 |
| 20260831191144 | 101 | 267 | 3.5 | 5.2 | 0.00 | 0.00 | 0.00 | 32 | 1016.6 |
| 20260831190639 | 100 | 51 | 0.9 | 6.1 | 0.00 | 0.00 | 0.00 | 32 | 1016.7 |
| 20260831190138 | 101 | 189 | 1.7 | 3.5 | 0.00 | 0.00 | 0.00 | 33 | 1016.9 |
| 20260831185634 | 103 | 235 | 2.6 | 3.5 | 0.00 | 0.00 | 0.00 | 31 | 1016.9 |
| 20260831185130 | 102 | 135 | 0.9 | 2.6 | 0.00 | 0.00 | 0.00 | 31 | 1016.7 |
| 20260831184629 | 102 | 246 | 2.6 | 3.5 | 0.00 | 0.00 | 0.00 | 31 | 1017.0 |